Dewpoint
51 52 52 53 53 53 54 56 56 57 57 58 58 57 57 56 56 56 56 55 55 55 55 55 56 58 58 58 60 60 61 59 57 56 55 55 58 61 62 65 66 67 67 64 61 56 53 53 54 55 55 54 54 48 49 47 47 44 40 39 38 39 39 41 39 39 40 33 32 34 32 33 33 34 36 35 35 36 39 45 48 58 58 58 58 59 59 59
51 51 52 52 52 53 53 54 55 56 57 58 58 57 58 57 56 56 57 55 55 55 56 55 55 56 56 59 61 61 60 58 55 54 53 57 59 60 62 64 65 65 66 62 60 57 54 52 53 55 54 53 53 49 49 48 45 41 41 40 38 40 41 43 41 40 38 38 36 34 34 34 31 33 35 32 32 35 36 40 53 55 57 58 59 59 59 59
50 51 51 51 51 52 52 53 56 56 57 57 58 58 58 58 57 57 57 57 56 56 56 55 55 55 56 58 59 61 57 54 52 48 48 58 59 60 61 63 65 65 65 62 59 57 56 54 55 54 53 52 49 46 47 47 44 42 41 39 39 42 41 41 41 40 39 38 37 35 34 33 33 30 35 29 31 34 34 42 48 53 55 56 57 58 58 58
50 50 51 51 52 51 52 52 54 56 57 57 58 58 57 58 58 57 56 57 57 57 56 55 56 57 58 57 60 58 55 49 44 39 36 54 59 59 60 62 64 65 65 61 59 61 61 59 58 55 52 51 51 49 44 46 42 42 40 40 40 42 41 41 42 41 40 39 38 37 33 33 34 33 29 29 32 31 32 37 45 49 56 57 58 58 58 58
49 50 50 51 51 51 52 52 53 55 56 56 57 58 58 58 58 57 56 57 57 56 55 55 55 57 59 59 59 53 50 24 25 40 36 52 59 60 60 62 63 63 63 60 60 62 61 58 56 55 52 50 50 50 47 44 43 41 39 40 40 41 40 41 40 40 39 40 39 36 32 32 34 34 31 28 27 27 28 30 39 46 58 58 58 58 58 57
49 50 50 50 51 51 51 51 52 53 56 56 56 57 58 57 57 57 57 56 56 57 56 55 55 57 59 59 57 55 37 17 37 52 59 60 59 60 60 61 63 63 61 58 59 60 58 57 55 51 50 49 49 48 50 47 44 39 40 40 40 40 39 40 40 40 39 39 38 38 38 35 33 33 33 29 29 29 30 31 33 44 58 58 59 58 57 57
48 49 49 50 50 50 51 51 51 52 55 56 56 57 58 57 57 57 58 56 55 56 57 56 56 58 57 58 57 55 47 34 46 56 57 60 61 61 61 61 62 63 61 58 59 59 58 56 55 51 50 48 49 49 51 49 51 41 39 42 45 41 39 40 40 41 40 39 38 39 39 37 35 32 32 30 30 31 31 33 32 44 58 59 58 58 58 57
49 48 49 49 50 50 51 51 51 52 53 54 55 56 58 57 57 57 58 57 56 56 56 56 57 57 58 55 52 48 48 44 44 48 57 53 58 61 61 58 60 62 61 59 58 58 58 56 54 52 50 49 49 50 51 50 51 48 47 49 47 47 45 43 42 41 41 40 39 39 38 38 34 33 33 31 31 32 33 38 40 52 58 58 58 58 58 57
49 50 49 50 50 50 50 51 51 52 52 53 54 55 56 57 57 57 57 57 56 56 56 57 57 57 58 54 50 45 43 47 48 47 47 43 45 59 60 58 63 62 61 60 60 59 58 56 55 54 50 50 51 49 50 49 48 50 48 49 49 48 46 45 42 42 41 40 39 38 37 37 38 36 36 36 36 35 36 41 45 54 57 58 58 58 58 58
49 49 50 49 50 50 50 50 51 51 52 52 53 55 55 56 56 57 57 58 57 55 56 57 57 58 55 53 48 40 40 46 44 42 40 40 40 59 59 60 63 62 61 60 59 58 57 55 56 55 53 51 51 49 51 49 48 50 49 49 48 47 45 42 41 41 41 41 40 39 38 37 38 37 35 37 37 38 37 41 48 53 56 57 57 58 58 58
49 49 50 50 49 50 50 50 50 51 52 53 53 55 56 56 56 57 57 57 57 56 56 56 57 56 53 52 46 39 47 46 41 39 40 42 42 55 59 60 62 61 61 59 59 59 58 56 56 54 53 51 51 48 49 49 46 46 46 45 44 44 44 43 43 42 41 41 40 39 38 38 37 37 36 37 38 37 37 36 45 49 52 55 56 57 57 58
48 49 50 49 49 49 50 50 49 49 52 53 53 54 55 56 56 57 57 57 57 57 56 56 57 55 53 51 47 42 47 50 49 49 52 43 45 57 59 60 62 61 60 58 59 59 59 58 56 53 50 52 49 48 48 50 47 46 45 44 44 44 44 45 44 44 40 40 39 38 36 35 36 35 36 37 38 37 36 36 36 41 48 51 53 56 57 57
48 49 50 50 49 49 49 49 49 49 50 52 52 54 55 55 55 56 57 57 57 56 56 56 55 54 51 45 47 49 48 47 47 49 48 52 53 55 59 60 61 62 61 59 58 58 59 58 56 53 53 50 48 48 48 48 48 47 45 44 43 43 43 44 43 41 40 40 37 37 35 36 36 35 36 37 37 37 36 35 35 35 37 47 50 52 55 56
48 48 49 50 49 49 49 50 50 50 49 51 52 54 55 55 56 56 57 57 57 56 56 55 54 53 50 45 47 49 49 48 48 46 45 50 49 51 59 60 61 61 60 59 56 57 58 54 57 55 54 51 47 49 47 47 47 45 44 44 41 39 41 42 43 41 42 41 41 37 35 36 37 36 36 36 36 36 36 36 36 36 35 35 46 51 52 54
48 48 49 49 49 49 49 48 50 49 50 50 51 54 55 55 56 55 56 56 56 56 56 56 54 51 46 46 48 50 54 49 46 45 46 43 47 49 57 59 59 58 58 58 56 57 58 58 56 53 51 53 50 47 45 45 43 44 43 42 39 42 40 41 42 40 41 40 40 36 36 37 37 38 37 35 35 35 35 35 35 36 36 35 35 44 50 51
48 48 47 48 49 49 49 48 49 50 50 50 50 52 55 55 55 55 56 56 56 56 56 53 51 51 46 42 44 55 49 46 44 44 44 45 45 45 51 58 58 58 59 57 58 58 57 56 54 53 51 51 49 47 44 42 41 43 43 38 41 41 41 41 42 42 41 40 41 38 37 36 36 38 38 37 35 35 35 35 35 35 36 36 35 35 41 47
48 48 47 48 49 49 49 49 49 49 50 51 51 53 53 55 55 55 56 56 56 56 54 49 51 51 39 46 48 44 43 45 47 45 44 46 47 50 54 56 56 57 58 55 57 56 55 55 52 51 51 49 47 47 42 41 40 42 43 40 40 41 41 40 41 42 42 40 39 39 37 37 36 36 37 38 38 37 35 35 35 35 35 35 36 35 35 38
48 48 47 49 48 49 49 49 49 49 50 50 50 52 52 55 55 56 55 55 55 54 53 51 51 46 42 44 40 41 44 43 44 43 43 49 47 51 51 55 56 56 56 53 53 53 54 51 51 47 47 47 47 45 41 37 40 40 41 40 38 38 41 40 38 39 42 41 40 40 39 38 38 38 37 37 37 37 37 36 36 36 36 36 35 34 34 35
47 47 47 48 49 49 48 49 49 49 50 50 50 53 53 53 54 53 51 51 48 43 41 42 44 35 30 37 41 42 43 45 45 43 42 46 51 54 55 56 56 52 50 49 49 51 52 49 49 45 42 44 44 45 43 41 40 40 41 41 39 38 37 40 40 40 41 41 40 40 39 39 39 39 39 38 37 37 37 38 38 38 37 37 36 35 35 35
47 47 48 48 48 49 48 49 49 49 49 48 50 50 48 44 45 43 49 48 45 43 43 44 46 42 42 41 40 42 48 46 42 42 42 49 49 49 51 53 51 51 48 45 48 49 51 45 42 41 44 44 45 45 45 42 41 42 41 40 39 38 38 39 39 39 41 39 39 39 39 39 39 39 39 39 39 37 36 36 37 37 37 37 36 35 36 36
47 47 47 47 48 48 48 49 50 49 49 49 48 45 39 40 38 35 44 45 47 47 44 44 44 40 39 43 44 43 42 42 42 42 42 48 48 45 47 49 47 46 46 46 45 50 50 42 43 44 44 44 45 45 45 45 43 40 40 40 39 39 38 39 38 39 40 38 37 38 37 38 38 39 38 38 37 36 36 36 36 36 37 38 38 37 37 37
47 47 47 47 47 48 48 48 49 49 50 49 47 44 44 43 45 49 46 39 44 46 45 44 45 41 42 41 44 43 44 40 40 41 43 44 45 41 45 47 46 43 46 45 45 44 42 41 43 45 44 44 44 45 45 44 43 42 40 39 39 39 39 39 39 39 40 39 36 36 36 35 35 36 39 39 38 38 38 37 37 37 37 37 38 38 38 39
47 47 47 47 47 48 48 48 49 49 48 46 43 45 44 45 48 46 46 43 42 46 44 44 42 40 38 42 43 44 41 39 38 41 41 43 43 41 47 45 44 44 45 44 41 42 39 43 44 45 45 43 43 44 44 45 45 43 41 39 38 38 38 35 38 39 40 39 37 39 37 37 39 40 39 39 39 40 41 40 39 39 38 38 38 38 39 39
47 47 47 47 48 47 48 48 49 48 47 46 46 46 47 49 48 46 43 37 36 43 43 43 42 40 38 37 43 42 40 39 39 39 44 43 40 42 46 45 43 42 42 44 42 41 40 43 45 45 45 43 42 43 44 44 42 43 41 39 38 38 38 38 37 39 42 41 40 38 38 39 40 39 40 41 42 42 42 42 41 41 42 42 42 42 42 40
47 47 47 47 48 48 48 49 47 45 46 47 45 47 48 49 48 47 42 33 36 35 45 42 44 42 41 43 44 41 41 41 40 41 42 43 41 42 43 46 43 40 42 44 42 41 40 43 45 44 43 44 43 43 44 43 42 41 42 41 39 39 37 37 36 37 38 39 41 40 34 35 37 39 39 40 40 40 41 41 41 41 41 42 42 42 42 43
47 47 47 47 48 48 48 45 44 45 46 43 45 47 49 49 48 46 42 30 25 34 41 33 43 38 42 38 42 43 44 39 42 42 43 42 44 41 42 42 43 38 41 43 41 42 39 41 44 43 42 43 44 43 43 44 42 41 40 43 42 40 38 36 35 37 35 34 37 40 36 31 33 35 37 38 38 38 39 38 39 40 40 40 41 41 41 41
47 47 47 47 47 48 45 40 45 46 41 42 45 48 48 48 47 45 35 26 23 34 32 40 37 38 40 38 39 43 33 35 44 43 42 44 41 41 39 39 41 41 43 43 39 37 42 41 42 43 42 42 42 42 44 43 42 40 42 42 42 41 39 38 37 36 34 36 36 38 38 34 33 34 37 38 38 38 38 38 38 38 39 39 39 40 40 40
47 47 47 47 47 47 44 47 44 43 42 45 47 48 49 47 47 43 33 17 16 36 31 38 39 43 39 40 42 38 38 43 38 41 43 43 41 38 37 38 39 38 40 41 31 40 40 39 40 41 42 42 41 42 43 44 41 40 41 42 41 41 40 39 39 37 35 34 32 34 36 34 34 34 35 38 37 38 38 38 38 38 39 39 40 40 40 41
47 47 47 47 47 47 46 45 44 42 45 48 48 48 47 45 42 34 26 16 32 33 42 35 45 40 39 41 38 39 37 41 34 40 44 43 43 38 34 35 38 38 39 39 34 37 40 40 40 41 41 40 41 42 42 44 42 42 42 44 41 41 41 40 38 36 34 34 31 34 36 32 30 32 33 37 34 34 36 37 38 38 39 39 40 40 40 40
46 46 47 47 46 47 46 45 44 44 47 48 48 47 46 44 37 25 19 10 35 23 35 36 36 35 38 35 35 36 36 37 40 43 42 39 40 43 42 39 36 36 36 36 38 36 40 43 42 41 41 41 41 41 42 43 43 40 43 39 37 37 37 37 39 36 32 29 32 35 35 34 30 31 32 34 34 33 33 34 35 36 38 39 40 40 41 41
46 46 46 47 45 45 46 42 44 47 47 48 47 45 42 38 28 21 15 18 30 30 37 36 33 38 34 32 31 34 36 36 41 41 40 42 40 41 40 36 37 33 31 32 36 37 38 41 40 38 42 41 42 38 39 41 41 41 37 37 38 35 34 32 31 32 29 28 33 35 34 34 30 30 32 34 34 34 34 33 33 33 34 36 37 39 39 40
46 47 46 46 46 48 42 41 44 48 48 47 45 41 36 23 26 18 16 35 22 26 31 32 36 34 33 32 30 32 33 34 40 40 39 39 38 38 37 31 32 28 29 32 32 36 36 38 40 41 42 41 40 40 37 37 37 40 37 37 34 29 32 28 31 27 27 28 32 34 34 32 32 32 29 30 32 32 34 34 33 33 33 34 35 35 36 38
46 47 46 46 47 46 45 46 47 47 47 46 42 39 29 21 12 21 25 26 17 33 29 34 34 33 32 30 29 31 34 31 40 39 40 40 38 38 39 35 33 28 24 30 29 31 32 34 38 39 41 42 41 37 36 33 36 38 37 35 32 27 26 26 29 29 29 32 30 32 33 30 30 31 33 31 30 32 32 33 34 34 34 34 35 36 36 38
46 46 46 46 46 46 47 47 46 47 45 44 40 33 29 17 16 25 24 23 19 31 34 33 34 33 31 27 28 31 31 32 39 38 39 36 38 34 38 37 35 30 27 28 27 28 25 26 30 37 35 41 42 38 37 35 36 38 38 35 32 29 24 23 26 25 25 26 31 31 28 25 27 26 32 32 32 32 33 34 35 35 35 35 35 36 36 37
47 45 46 46 46 46 47 46 47 47 45 41 33 29 19 17 25 22 21 24 26 32 32 34 32 32 30 28 29 31 30 28 36 38 36 35 33 34 34 36 37 31 29 26 25 23 25 21 25 36 36 41 40 41 40 38 36 37 37 35 33 30 27 22 23 24 24 24 23 27 29 30 27 31 32 34 34 34 34 34 34 34 34 34 34 35 35 35
45 44 46 43 44 45 47 47 47 47 43 36 29 23 20 21 19 23 23 30 30 29 32 33 32 30 29 29 31 30 31 28 35 36 35 36 35 35 36 36 36 33 29 22 25 21 23 21 28 32 38 40 40 41 41 40 32 35 37 34 33 37 31 25 27 23 24 24 23 25 28 30 32 31 32 33 31 33 34 33 34 34 34 34 34 34 34 35
42 44 40 43 44 46 46 47 47 46 41 35 27 21 25 26 23 27 32 29 29 31 31 26 28 29 28 27 29 30 29 34 35 35 31 36 33 36 35 36 37 35 33 25 25 25 19 18 28 30 32 38 40 41 41 40 39 36 33 36 39 37 33 30 25 25 25 24 23 26 24 26 28 26 30 30 32 32 31 31 33 34 35 34 35 35 36 36
42 43 41 41 43 46 46 47 47 42 38 31 25 26 28 26 31 30 31 32 31 31 29 28 29 30 27 28 28 29 29 26 32 32 29 34 29 36 35 34 37 36 35 32 25 27 24 16 22 32 32 34 38 40 38 40 41 37 35 39 36 29 30 28 29 25 24 24 24 26 25 25 27 26 29 28 29 32 32 32 32 33 34 35 36 37 37 38
42 40 35 40 44 46 46 47 45 40 34 26 26 26 27 28 29 31 32 33 32 30 28 28 28 29 29 28 29 29 28 23 32 30 28 31 26 33 33 34 35 37 36 34 28 28 25 17 19 28 32 35 38 37 32 37 39 38 38 32 34 32 33 31 29 30 30 24 24 24 26 25 30 27 27 27 28 31 32 33 33 33 34 34 35 36 37 37
38 35 32 43 44 46 47 46 39 35 30 24 26 25 30 27 29 30 33 35 31 29 27 27 29 27 29 28 29 28 28 26 31 29 27 31 27 31 33 34 33 36 37 36 30 33 27 23 15 26 32 36 32 34 33 33 35 35 36 35 34 31 31 34 31 31 28 25 25 24 24 26 30 30 28 27 27 28 31 31 31 30 30 34 35 36 37 37
38 33 32 44 45 46 46 40 33 29 28 30 30 26 28 26 30 31 31 34 32 32 29 28 29 27 28 27 28 30 27 26 29 28 26 28 27 24 33 32 33 35 37 36 32 31 27 26 19 30 32 31 31 36 35 34 35 36 36 35 34 33 31 29 26 33 30 29 23 24 24 26 30 31 29 28 28 28 28 28 28 27 27 28 30 31 34 36
35 24 29 45 46 46 41 30 29 31 29 28 26 30 28 34 29 31 31 31 33 32 31 31 28 27 28 28 29 29 27 25 28 27 25 25 29 25 29 34 34 36 35 34 33 34 30 28 25 23 30 32 31 34 35 36 36 35 36 35 36 34 33 31 25 29 28 27 29 24 25 27 35 30 29 28 27 27 27 28 28 28 28 29 32 33 34 34
29 24 42 46 46 42 36 29 32 30 27 29 31 32 33 31 29 31 30 31 30 32 31 28 28 26 25 26 28 29 28 25 26 26 25 24 26 27 31 34 36 36 36 35 34 35 35 24 23 24 28 28 31 32 32 33 35 34 34 35 35 33 33 31 29 28 27 28 28 28 27 29 30 30 31 29 29 29 30 32 33 35 34 34 34 34 35 35
32 32 38 44 45 40 33 25 25 26 27 29 30 29 33 30 30 30 29 30 31 30 29 29 28 28 26 27 28 28 28 22 26 26 24 25 23 28 32 34 36 35 33 34 32 34 29 27 27 21 17 20 26 30 27 28 30 31 32 35 35 34 34 33 32 30 28 27 27 25 23 26 33 32 31 30 29 29 29 29 30 31 31 31 31 31 33 34
34 36 33 38 43 38 31 30 28 27 28 28 30 29 29 29 30 31 30 29 33 29 29 29 29 30 27 28 27 26 28 25 22 26 25 25 24 29 31 35 36 35 34 35 36 35 31 28 27 21 18 16 16 19 22 26 28 31 30 33 34 34 33 32 30 31 28 29 29 26 26 29 30 30 29 29 29 29 32 32 31 31 31 31 32 32 32 35
30 26 31 33 37 37 33 33 29 29 28 29 29 29 29 28 30 32 31 31 34 33 32 32 31 30 29 27 25 23 26 25 23 23 25 24 24 25 28 33 35 35 35 38 37 34 25 29 28 24 21 18 17 19 22 29 28 27 29 33 33 34 34 33 30 30 28 29 29 29 28 28 28 28 28 28 28 27 27 30 32 33 34 34 34 35 36 37
29 20 26 26 32 32 32 30 28 30 28 31 26 29 28 28 29 30 31 29 32 31 29 31 30 27 27 27 26 25 26 24 23 25 25 24 25 25 29 31 33 35 37 37 36 30 25 27 29 27 25 23 21 20 27 28 25 26 27 29 32 33 34 33 31 29 31 29 26 28 30 28 28 28 28 27 28 28 28 29 32 34 35 35 35 35 36 35
24 24 27 28 29 27 29 29 31 30 31 31 26 29 28 28 28 28 31 34 33 34 29 30 31 29 28 27 26 25 25 22 19 24 25 25 27 28 27 30 30 32 36 34 36 31 27 26 28 28 27 27 26 25 24 24 27 26 27 28 29 31 32 32 32 34 34 31 27 28 29 28 29 29 29 29 28 28 28 29 32 34 36 37 37 36 36 36
31 32 32 32 28 29 31 30 31 30 30 31 30 30 27 28 27 29 29 30 30 30 32 28 29 29 28 28 27 25 25 23 22 19 23 24 27 27 26 28 30 32 34 33 32 30 28 24 24 28 28 28 28 27 26 25 24 24 26 28 28 27 29 30 31 33 34 33 34 35 34 34 35 34 34 33 35 36 36 37 37 36 36 37 37 37 37 37
30 28 28 31 31 31 33 32 31 31 29 31 28 29 28 28 27 30 31 29 27 29 32 29 29 29 29 29 27 26 26 26 25 22 22 27 23 25 27 26 27 27 30 31 29 27 30 24 29 23 24 25 27 27 27 27 26 25 25 25 27 28 29 29 29 31 32 33 34 34 34 34 38 38 37 37 37 37 37 36 36 36 36 35 36 37 37 37
34 34 35 29 29 31 32 31 30 30 29 29 28 29 30 29 28 30 30 32 30 29 30 30 31 30 30 29 28 27 29 28 28 27 28 29 27 29 26 25 30 28 28 29 28 28 28 23 27 24 23 22 24 26 26 27 27 25 25 26 26 26 26 27 28 29 29 28 30 32 32 33 35 38 38 37 37 36 36 36 36 36 36 35 34 34 34 34
36 37 37 34 29 33 30 32 32 30 27 29 29 29 29 29 29 30 28 31 32 32 31 31 32 31 29 29 27 28 30 30 30 30 31 31 30 29 30 30 30 28 29 29 30 30 29 28 24 22 20 21 22 26 25 21 18 19 23 27 29 29 28 28 28 29 30 30 29 28 28 32 33 34 34 34 34 35 35 35 36 36 36 35 35 34 34 34